Regional Weather Roundup
Issued by NWS Goodland, KS

Home | Current Version | Previous Version | Graphics & Text | Print | Product List | Glossary On
Versions: 1 2 3 4 5 6 7 8 9 10 11 12 13 14 15 16 17 18 19 20 21 22 23 24 25 26 27 28 29 30 31 32 33 34 35 36 37 38 39 40 41 42 43 44 45 46 47 48 49 50
000
ASUS43 KGLD 300908
RWRGLD

GOODLAND FORECAST AREA HOURLY WEATHER ROUNDUP
NATIONAL WEATHER SERVICE GOODLAND KS
300 AM MDT SAT JUL 30 2016

...OFFICIAL OBSERVATIONS...

CITY           SKY/WX    TMP DP  RH WIND       PRES   REMARKS
GOODLAND KS    CLOUDY    66  61  84 S3        30.03S
HILL CITY KS   PTCLDY    67  65  93 E6        30.03S
IMPERIAL NEB   CLOUDY    64  61  90 SE8       30.04F
MCCOOK NEB     CLEAR     66  63  90 SE7       30.02F
AKRON CO       CLOUDY    61  55  81 W8        30.07F
BURLINGTON CO  PTCLDY    64  55  72 SW16      30.07R
LIMON CO       LGT RAIN  63  61  93 SE16      30.18F
$$

...UNOFFICIAL OBSERVATIONS...

CITY           SKY/WX    TMP DP  RH WIND       PRES   REMARKS
COLBY KS       CLEAR     66  64  94 SE6       30.04F
LENORA KS        N/A     66  32  28 MISG        N/A
NORTON KS      CLEAR     64  59  82 E5        30.02F
SHARON SPRINGS   N/A     68  64  86 S8G20       N/A
KIT CARSON CO    N/A     66  58  77 MISG        N/A
YUMA CO          N/A     64  58  82 CALM        N/A
$$



USA.gov is the U.S. government's official web portal to all federal, state and local government web resources and services.